User: anonymous   Login
Location: Mactaquac Provincial Park
(45.9573°N, 66.8897°W)
Time: 14:12:14
(UTC-03:00)
Language:

CENTAUR R/B - Orbit

View from above orbital plane
View from above orbital plane
View from above satellite
View from above satellite

Ground track
Ground track

The orbit data is extracted from the following two-line orbital elements,

1 26906U 01040B   16271.06964544 0.00000000  00000-0  00000-0 0    06
2 26906  63.4555 287.7205 0333000 342.9469  17.0531 13.43993971    06
Epoch (UTC): 27 September 2016 01:40:17
Eccentricity: 0.0333000
inclination: 63.4555°
perigee height: 845 km
apogee height: 1343 km
right ascension of ascending node: 287.7205°
argument of perigee: 342.9469°
revolutions per day: 13.43993971
mean anomaly at epoch: 17.0531°
orbit number at epoch: 0

The dashed part of the orbit path shows where the satellite is in the earth's shadow,  

DLR